GALILEO224 [ESA] 1 49810C 21116B 22226.99979167 .00000000 00000+0 00000+0 0 2265 2 49810 57.1920 19.5001 0002855 142.8640 296.3564 1.70476121 14 GALILEO224 [GAL] 1 49810C 21116B 22227.01020833 .00000000 00000+0 00000+0 0 2277 2 49810 57.1920 19.4998 0002855 142.8735 302.7398 1.70476123 12